Regional Weather Roundup
Issued by NWS Charleston, SC

Current Version | Previous Version | Text Only | Print | Product List | Glossary On
Versions: 1 2 3 4 5 6 7 8 9 10 11 12 13 14 15 16 17 18 19 20 21 22 23 24 25 26 27 28 29 30 31 32 33 34 35 36 37 38 39 40 41 42 43 44 45 46 47 48 49 50
000 ASUS42 KCHS 241710 RWRCHS REGIONAL WEATHER ROUNDUP NATIONAL WEATHER SERVICE CHARLESTON SC 100 PM EDT THU JUL 24 2014 NOTE: "FAIR" INDICATES FEW OR NO CLOUDS BELOW 12,000 FEET WITH NO SIGNIFICANT WEATHER AND/OR OBSTRUCTIONS TO VISIBILITY. NOT ALL STATIONS ARE QUALITY CONTROLLED BY THE NATIONAL WEATHER SERVICE. USE DATA WITH CAUTION...ESPECIALLY DEWPOINT OBSERVATIONS. SCZ027-030-031-034>040-042>050-241800- ...SOUTH CAROLINA... CITY SKY/WX TMP DP RH WIND PRES REMARKS N CHARLESTON MOSUNNY 92 73 53 W13 29.96F HX 100 WATERFRONT PRK N/A 90 N/A N/A SW8G14 N/A FORT JOHNSON NOT AVBL MOUNT PLEASANT FAIR 91 73 55 W8G17 29.96S HX 100 JOHNS ISLAND MOSUNNY 91 68 46 SW10 29.97F HX 95 PINOPOLIS N/A 90 73 58 SW9 29.89S HX 98 MONCKS CORNER N/A 91 77 62 SW12G18 29.95F HX 105 SUMMERVILLE FAIR 91 73 55 SW7 29.96F HX 100 BEAUFORT MCAS PTSUNNY 91 72 53 W13 29.97F HX 98 BEAUFORT ARPT FAIR 91 73 55 SW7 29.96F HX 100 HILTON HEAD IS SUNNY 88 75 66 SE8 29.98F HX 97 GEORGETOWN NOT AVBL WALTERBORO MOSUNNY 93 66 40 SW12 29.97F HX 96 ORANGEBURG MOSUNNY 90 71 53 W9 29.95F HX 96 BARNWELL FAIR 91 70 49 W13G18 29.96F HX 97 AIKEN FAIR 90 72 55 SW13G18 30.00F HX 96 MANNING FAIR 91 73 55 SW12G17 29.94F HX 100 KINGSTREE NOT AVBL COLUMBIA MOSUNNY 94 68 42 SW15G23 29.92F HX 98 SUMTER MOSUNNY 91 74 57 SW15G21 29.91F HX 99 FLORENCE MOSUNNY 92 72 51 W15 29.91F HX 99 MYRTLE BEACH MOSUNNY 91 72 52 W12 29.93F HX 98 N MYRTLE BEACH MOSUNNY 92 71 50 SW12G22 29.91F HX 98 $$ GAZ063-065-086>088-099>101-113>116-118-119-134-136>141-150-241800- ...GEORGIA... CITY SKY/WX TMP DP RH WIND PRES REMARKS SAVANNAH ARPT PTSUNNY 91 72 53 SW8 29.98F HX 98 HUNTER AAF MOSUNNY 89 74 60 SW7 29.97F HX 98 FORT STEWART MOSUNNY 91 71 52 SW12G20 29.98F HX 98 STATESBORO NOT AVBL SYLVANIA SUNNY 89 76 65 W8 29.99F HX 99 CLAXTON FAIR 90 75 62 SW7 29.99F HX 100 THOMSON PTSUNNY 90 76 64 W8G16 30.01F HX 101 AUGUSTA-BUSH PTSUNNY 89 70 53 SW13 29.95F HX 94 AUGUSTA-DANIEL MOSUNNY 90 70 51 SW10 29.97F HX 95 SWAINSBORO FAIR 91 73 55 SW13 29.99F HX 100 VIDALIA N/A 90 72 55 SW10 30.00F HX 96 ALMA MOSUNNY 91 68 46 W9 30.01F HX 95 WAYCROSS MOSUNNY 94 72 48 W14G20 30.02F HX 102 JESUP NOT AVBL BRUNSWICK PTSUNNY 90 70 51 CALM 30.02F HX 95 SAINT SIMONS MOSUNNY 89 71 55 SW12 30.01F HX 95 $$ SCZ027-028-034-036>038-045-046-048>050-GAZ119-141-241800- ...LAKE AND SUPPLEMENTAL COASTAL OBSERVATIONS... STATION/POSITION TIME TEMP WIND PRES WAVE SWELL AIR SEA DIR/SP/G HT/PER HT/PER/DIR (UTC) (F) (DEG/KT/KT) (MB) (FT/S) (FT/S/D) UPR LAKE MARION NOT AVBL WINYAH BAY 1600 88 240/ 9 1014.0S LAKE MURRAY 1600 86 250/ 9/ 12 1013.2F ACE BASIN NERRS 1600 88 240/ 3 1016.0S FORT PULASKI 1700 88 230/ 7/ 9 1015.6F SAPELO ISLAND NOT AVBL $$ ANZ835-935-AMZ111-154-330-350-352-354-374-450-454-472-241800- ...C-MAN AND BUOY OBSERVATIONS... STATION/POSITION TIME TEMP WIND PRES WAVE SWELL AIR SEA DIR/SP/G HT/PER HT/PER/DIR (UTC) (F) (DEG/KT/KT) (MB) (FT/S) (FT/S/D) FOLLY BEACH CMAN 1600 85 200/ 10/ 12 1015.4F BUOY 41004 1700 83 83 230/ 12/ 14 1014.4F 4/ 6 2/ 7 BUOY 41008 1700 83 85 220/ 10/ 12 1016.3F 2/ 5 2/140/ 5 5E ST. MARYS GA 1700 85 N/A 2/10 FRYING PAN BUOY NOT AVBL BUOY 41025 1700 VRB 17/ 21 1011.7F 4/ 7 2/160/ 7 CAPE LOOKOUT NC 1700 83 220/ 14/ 19 1012.2F BUOY 41002 1607 81 82 240/ 21/ 23 1017.3 6/ 6 2/150/ 9 BUOY 41010 1700 82 84 250/ 6/ 8 1018.9F 3/ 7 3/130/ 7 BUOY 41012 NOT AVBL ST AUGUSTINE FL 1700 88 280/ 4/ 9 1017.8F CAPERS NEARSHORE 1600 85 220/ 12/ 14 N/A FRIPP NEARSHORE NOT AVBL $$

USA.gov is the U.S. government's official web portal to all federal, state and local government web resources and services.